This demonstration page uses our WeatherBlox Daily Observations layout. Learn more.

Left ArrowRight Arrow

30.21309, -93.2044

Hourly Observations for June 7, 2019

Temp ( °F °C ) Dew Point ( °F °C ) Humidity (%) Winds ( mph kmh ) Pressure ( in mb ) Visibility ( mi km ) Precip ( " mm )
12:15 am 00:15 Clear 82 27.6 78 25.4 88 88 SW 7 11 29.73 1007 10 16 0.00 0.00
12:35 am 00:35 Clear 82 27.9 77 24.8 83 83 SW 8 13 29.73 1007 10 16 0.00 0.00
12:55 am 00:55 Clear 82 27.5 76 24.7 85 85 SSW 8 13 29.73 1007 10 16 0.00 0.00
1:15 am 01:15 Clear 81 27.3 76 24.6 85 85 SW 7 11 29.73 1007 10 16 0.00 0.00
1:35 am 01:35 Clear 81 27 76 24.5 86 86 SW 7 11 29.73 1007 10 16 0.00 0.00
1:55 am 01:55 Clear 81 27.2 75 23.9 82 82 WSW 8 13 29.73 1007 10 16 0.00 0.00
2:15 am 02:15 Clear 81 27 74 23.4 81 81 W 7 11 29.72 1006 10 16 0.00 0.00
2:35 am 02:35 Clear 80 26.8 71 21.7 74 74 W 7 11 29.72 1006 10 16 0.00 0.00
2:55 am 02:55 Clear 80 26.8 69 20.7 69 69 WSW 10 17 29.71 1006 10 16 0.00 0.00
3:15 am 03:15 Clear 79 26.3 70 20.9 72 72 W 8 13 29.71 1006 10 16 0.00 0.00
3:35 am 03:35 Clear 80 26.5 67 19.6 66 66 W 12 19 29.71 1006 10 16 0.00 0.00
3:55 am 03:55 Clear 79 26.2 67 19.6 67 67 W 12 19 29.71 1006 10 16 0.00 0.00
4:15 am 04:15 Clear 78 25.7 68 19.8 70 70 W 6 9 29.72 1006 10 16 0.00 0.00
4:35 am 04:35 Clear 78 25.5 67 19.3 69 69 W 8 13 29.73 1007 10 16 0.00 0.00
4:55 am 04:55 Clear 78 25.3 67 19.4 70 70 W 9 15 29.73 1007 10 16 0.00 0.00
5:15 am 05:15 Clear 77 25.1 67 19.2 70 70 W 12 19 29.74 1007 10 16 0.00 0.00
5:35 am 05:35 Clear 77 24.8 67 19.5 72 72 W 9 15 29.74 1007 10 16 0.00 0.00
6:05 am 06:05 Mostly Clear 77 25 68 20 74 74 W 14 22 29.74 1007 10 16 0.00 0.00
6:55 am 06:55 Mostly Sunny 75 24 68 20 78 78 NNW 8 13 29.75 1007 10 16 0.00 0.00
7:55 am 07:55 Mostly Cloudy 79 26 70 21 74 74 WNW 12 19 29.76 1008 10 16 0.00 0.00
8:50 am 08:50 Mostly Cloudy 79 26 70 21 74 74 WSW 8 13 29.78 1008 10 16 0.00 0.00
9:45 am 09:45 Mostly Cloudy 79 26 73 23 84 84 SW 9 15 29.77 1008 10 16 0.00 0.00
10:45 am 10:45 Mostly Cloudy 82 28 73 23 74 74 W 7 11 29.78 1008 10 16 0.00 0.00
12:45 pm 12:45 Mostly Cloudy 86 30 75 24 70 70 W 10 17 29.74 1007 10 16 0.00 0.00
1:45 pm 13:45 Mostly Cloudy 90 32 73 23 59 59 W 6 9 29.72 1006 10 16 0.00 0.00
2:50 pm 14:50 Mostly Cloudy 90 32 73 23 59 59 NW 8 13 29.70 1006 10 16 0.00 0.00
3:55 pm 15:55 Mostly Cloudy 91 33 72 22 52 52 SW 12 19 29.68 1005 10 16 0.00 0.00
4:50 pm 16:50 Partly Cloudy 88 31 73 23 62 62 NNW 8 13 29.67 1005 10 16 0.00 0.00
5:50 pm 17:50 Mostly Cloudy 90 32 70 21 52 52 W 9 15 29.67 1005 10 16 0.00 0.00
6:50 pm 18:50 Partly Cloudy 88 31 72 22 59 59 W 6 9 29.66 1004 10 16 0.00 0.00
7:50 pm 19:50 Partly Cloudy 86 30 73 23 66 66 N 3 6 29.69 1005 10 16 0.00 0.00
8:55 pm 20:55 Mostly Clear 82 28 72 22 70 70 N 10 17 29.70 1006 10 16 0.00 0.00
9:50 pm 21:50 Mostly Clear 81 27 72 22 74 74 N 5 7 29.71 1006 10 16 0.00 0.00
10:15 pm 22:15 Partly Cloudy 80 26.4 72 22.4 79 79 NNE 5 7 29.72 1006 10 16 0.00 0.00
10:35 pm 22:35 Partly Cloudy 78 25.6 73 22.7 84 84 Calm 29.74 1007 10 16 0.00 0.00
10:55 pm 22:55 Clear 77 25.1 73 22.9 88 88 N 3 6 29.74 1007 10 16 0.00 0.00
11:15 pm 23:15 Clear 77 25.2 73 22.7 86 86 NNW 3 6 29.73 1007 10 16 0.00 0.00
11:35 pm 23:35 Partly Cloudy 78 25.4 73 22.8 86 86 Calm 29.74 1007 10 16 0.00 0.00
11:55 pm 23:55 Mostly Cloudy 77 25.1 73 22.8 87 87 Calm 29.73 1007 10 16 0.00 0.00

Powered by AerisWeather